Weather History for Williamsport, PA

Change the Weather History Date:

Saturday, November 24, 2012

  Actual Average Record
Temperature  
Mean Temperature 38 °F 39 °F  
Max Temperature 42 °F 46 °F 69 °F (2014)
Min Temperature 33 °F 31 °F 15 °F (1914)
Degree Days  
Heating Degree Days 27 26  
Month to date heating degree days 579 535  
Since 1 July heating degree days 1003 1078  
Cooling Degree Days 0 0  
Month to date cooling degree days 0 0  
Year to date cooling degree days 951 702  
Moisture  
Dew Point 24 °F    
Average Humidity 63    
Maximum Humidity 82    
Minimum Humidity 44    
Precipitation  
Precipitation 0.01 in 0.13 in 1.96 in (1901)
Month to date precipitation 0.50 2.95  
Year to date precipitation 30.48 37.56  
Snow  
Snow T in - - ()
Month to date snowfall T  
Since 1 July snowfall T  
Since 1 September snowfall T  
Snow Depth 0.00 in    
Sea Level Pressure  
Sea Level Pressure 29.86 in    
Wind  
Wind Speed 13 mph (WNW)    
Max Wind Speed 24 mph    
Max Gust Speed 33 mph    
Visibility 9 miles    
Events Snow    
T = Trace of Precipitation, MM = Missing Value Source: NWS Daily Summary

Daily Weather History Graph

Daily Weather History Graph

Search for Another Location

Airport:

Trip Planner

Search our weather history database for the weather conditions in past years. The results will help you decide how hot, cold, wet, or windy it might be!

Date:

Astronomy

Nov. 24, 2012 Rise Set
Actual Time 7:06 AM EST 4:41 PM EST
Civil Twilight 6:36 AM EST 5:12 PM EST
Nautical Twilight 6:02 AM EST 5:46 PM EST
Astronomical Twilight 5:29 AM EST 6:19 PM EST
Moon 2:27 PM EST (11/24) 3:19 AM EST (11/24)
Length of Visible Light 10h 35m
Length of Day
9h 35m
Waxing Gibbous, 87% of the Moon is Illuminated
Nov 24
Waxing Gibbous
Nov 28
Full
Dec 6
Last Quarter
Dec 13
New
Dec 20
First Quarter

Hourly Weather History & Observations

Time (EST) Temp. Windchill Dew Point Humidity Pressure Visibility Wind Dir Wind Speed Gust Speed Precip Events Conditions
12:54 AM 37.9 °F 30.5 °F 23.0 °F 55% 29.82 in 10.0 mi West 11.5 mph 19.6 mph N/A   Overcast
1:54 AM 37.9 °F 29.6 °F 21.0 °F 51% 29.83 in 10.0 mi West 13.8 mph 27.6 mph N/A   Overcast
2:54 AM 37.0 °F 30.4 °F 21.0 °F 52% 29.82 in 10.0 mi West 9.2 mph - N/A   Overcast
3:54 AM 36.0 °F 28.5 °F 23.0 °F 59% 29.82 in 10.0 mi West 10.4 mph - N/A   Overcast
4:54 AM 36.0 °F 28.0 °F 23.0 °F 59% 29.83 in 10.0 mi West 11.5 mph - N/A   Overcast
5:54 AM 36.0 °F 28.5 °F 23.0 °F 59% 29.83 in 10.0 mi West 10.4 mph 18.4 mph N/A   Overcast
6:54 AM 35.1 °F 26.9 °F 24.1 °F 64% 29.84 in 10.0 mi West 11.5 mph - N/A   Mostly Cloudy
7:54 AM 35.1 °F 27.4 °F 25.0 °F 67% 29.85 in 10.0 mi West 10.4 mph - N/A   Mostly Cloudy
8:54 AM 37.9 °F 31.5 °F 24.1 °F 57% 29.85 in 10.0 mi West 9.2 mph - N/A   Mostly Cloudy
9:54 AM 37.0 °F 28.5 °F 24.1 °F 59% 29.86 in 10.0 mi West 13.8 mph 23.0 mph N/A   Mostly Cloudy
10:54 AM 37.9 °F 28.9 °F 21.9 °F 53% 29.86 in 10.0 mi West 16.1 mph 26.5 mph 0.00 in   Overcast
11:54 AM 37.9 °F 28.2 °F 21.9 °F 53% 29.83 in 10.0 mi WNW 18.4 mph 27.6 mph N/A   Overcast
12:54 PM 39.0 °F 28.8 °F 21.9 °F 50% 29.82 in 9.0 mi WNW 21.9 mph 33.4 mph 0.00 in   Overcast
1:54 PM 39.0 °F 29.6 °F 19.9 °F 46% 29.82 in 10.0 mi West 18.4 mph 28.8 mph N/A   Overcast
2:18 PM 33.8 °F 25.3 °F 28.4 °F 81% 29.83 in 2.0 mi NNW 11.5 mph - 0.00 in Snow Light Snow
2:25 PM 33.8 °F 24.3 °F 28.4 °F 81% 29.83 in 1.5 mi NNW 13.8 mph 19.6 mph 0.01 in Snow Light Snow
2:34 PM 33.8 °F 24.3 °F 28.4 °F 81% 29.83 in 1.2 mi NW 13.8 mph 20.7 mph 0.01 in Snow Light Snow
2:51 PM 33.8 °F 23.2 °F 26.6 °F 75% 29.83 in 3.0 mi WNW 17.3 mph 24.2 mph 0.01 in Snow Light Snow
2:54 PM 35.1 °F 25.5 °F 27.0 °F 72% 29.85 in 5.0 mi WNW 15.0 mph 24.2 mph 0.01 in Snow Light Snow
3:08 PM 35.6 °F 26.2 °F 26.6 °F 70% 29.84 in 10.0 mi WNW 15.0 mph 24.2 mph 0.00 in   Overcast
3:54 PM 35.1 °F 25.9 °F 27.0 °F 72% 29.86 in 10.0 mi West 13.8 mph 20.7 mph 0.00 in   Mostly Cloudy
4:54 PM 35.1 °F 25.2 °F 27.0 °F 72% 29.88 in 10.0 mi West 16.1 mph 23.0 mph 0.00 in Snow Light Snow
5:54 PM 33.1 °F 23.4 °F 28.0 °F 82% 29.90 in 3.0 mi West 13.8 mph - 0.00 in Snow Light Snow
6:13 PM 33.8 °F 25.8 °F 28.4 °F 81% 29.89 in 9.0 mi West 10.4 mph - 0.00 in Snow Light Snow
6:54 PM 34.0 °F 24.6 °F 25.0 °F 70% 29.91 in 10.0 mi West 13.8 mph 20.7 mph 0.00 in   Scattered Clouds
7:54 PM 34.0 °F 25.0 °F 24.1 °F 67% 29.92 in 9.0 mi West 12.7 mph - 0.00 in Snow Light Snow
8:54 PM 33.1 °F 25.5 °F 24.1 °F 70% 29.93 in 10.0 mi NW 9.2 mph 18.4 mph 0.00 in   Mostly Cloudy
9:54 PM 34.0 °F 24.6 °F 24.1 °F 67% 29.94 in 9.0 mi WNW 13.8 mph 19.6 mph 0.00 in Snow Light Snow
10:54 PM 33.1 °F 26.9 °F 25.0 °F 72% 29.94 in 10.0 mi WNW 6.9 mph - 0.00 in   Overcast
11:54 PM 34.0 °F 25.5 °F 21.0 °F 59% 29.94 in 10.0 mi WNW 11.5 mph 19.6 mph N/A   Overcast